| time (UTC) | temp C | wind direction | speed KPH | gust KPH | rain 1hr cm | rain 24hr cm | rain mn cm | humidity % | barometer mb |
| 20260903150804 | 2 | 283 | 6.4 | 8.0 | 0.00 | 0.00 | 0.00 | 99 | 1021.0 |
| 20260903150304 | 2 | 279 | 4.8 | 9.7 | 0.00 | 0.00 | 0.00 | 99 | 1021.0 |
| 20260903140804 | 2 | 274 | 4.8 | 4.8 | 0.00 | 0.00 | 0.00 | 98 | 1020.4 |
| 20260903140305 | 2 | 283 | 4.8 | 9.7 | 0.00 | 0.00 | 0.00 | 98 | 1020.4 |
| 20260903130804 | 3 | 278 | 4.8 | 4.8 | 0.00 | 0.00 | 0.00 | 98 | 1019.7 |
| 20260903130304 | 3 | 276 | 4.8 | 11.3 | 0.00 | 0.00 | 0.00 | 98 | 1019.6 |
| 20260903120305 | 5 | 226 | 3.2 | 12.9 | 0.00 | 0.00 | 0.00 | 96 | 1019.1 |
| 20260903110805 | 6 | 258 | 3.2 | 9.7 | 0.00 | 0.00 | 0.00 | 97 | 1018.6 |
| 20260903110306 | 6 | 207 | 3.2 | 11.3 | 0.00 | 0.00 | 0.00 | 96 | 1018.5 |
| 20260903100805 | 6 | 281 | 4.8 | 8.0 | 0.00 | 0.00 | 0.00 | 97 | 1017.8 |
| 20260903100307 | 6 | 279 | 8.0 | 9.7 | 0.00 | 0.00 | 0.00 | 98 | 1017.7 |
| 20260903080806 | 7 | 265 | 3.2 | 3.2 | 0.00 | 0.00 | 0.00 | 98 | 1016.2 |
| 20260903080305 | 7 | 264 | 3.2 | 8.0 | 0.00 | 0.00 | 0.00 | 98 | 1016.1 |
| 20260903070812 | 7 | 253 | 1.6 | 3.2 | 0.00 | 0.00 | 0.00 | 98 | 1015.1 |
| 20260903070305 | 7 | 247 | 1.6 | 4.8 | 0.00 | 0.00 | 0.00 | 98 | 1015.1 |
| 20260903060805 | 7 | 266 | 0.0 | 3.2 | 0.00 | 0.25 | 0.00 | 98 | 1014.0 |
| 20260903060306 | 7 | 239 | 1.6 | 3.2 | 0.00 | 0.25 | 0.00 | 98 | 1013.9 |
| 20260903050806 | 8 | 324 | 1.6 | 4.8 | 0.00 | 0.25 | 0.00 | 95 | 1013.1 |
| 20260903050305 | 8 | 259 | 1.6 | 11.3 | 0.00 | 0.25 | 0.00 | 96 | 1013.1 |
| 20260903040805 | 10 | 271 | 4.8 | 8.0 | 0.00 | 0.25 | 0.00 | 77 | 1011.9 |
| 20260903030805 | 11 | 279 | 4.8 | 8.0 | 0.00 | 0.25 | 0.00 | 78 | 1010.7 |
| 20260903020805 | 11 | 285 | 1.6 | 4.8 | 0.00 | 0.25 | 0.00 | 70 | 1009.4 |
| 20260903010805 | 14 | 355 | 0.0 | 4.8 | 0.00 | 0.25 | 0.00 | 62 | 1008.2 |
| 20260903010305 | 14 | 316 | 1.6 | 4.8 | 0.00 | 0.25 | 0.00 | 60 | 1008.1 |
| 20260903000805 | 13 | 19 | 0.0 | 3.2 | 0.00 | 0.38 | 0.00 | 63 | 1007.8 |
| 20260903000306 | 13 | 347 | 1.6 | 4.8 | 0.00 | 0.38 | 0.00 | 62 | 1007.8 |
| 20260902230805 | 14 | 343 | 3.2 | 4.8 | 0.00 | 0.51 | 0.00 | 67 | 1007.4 |
| 20260902230305 | 14 | 24 | 0.0 | 8.0 | 0.00 | 0.51 | 0.00 | 59 | 1007.3 |
| 20260902220804 | 13 | 309 | 0.0 | 0.0 | 0.00 | 0.51 | 0.00 | 63 | 1007.2 |
| 20260902220305 | 12 | 307 | 0.0 | 3.2 | 0.00 | 0.51 | 0.00 | 65 | 1007.2 |
| 20260902210805 | 12 | 3 | 0.0 | 1.6 | 0.00 | 0.51 | 0.00 | 72 | 1006.9 |
| 20260902200305 | 11 | 32 | 0.0 | 8.0 | 0.00 | 0.51 | 0.00 | 74 | 1006.8 |
| 20260902190805 | 11 | 118 | 0.0 | 0.0 | 0.00 | 0.51 | 0.00 | 80 | 1007.0 |
| 20260902190305 | 10 | 118 | 1.6 | 9.7 | 0.00 | 0.51 | 0.00 | 78 | 1007.0 |
| 20260902180806 | 9 | 274 | 8.0 | 9.7 | 0.00 | 0.51 | 0.00 | 85 | 1007.3 |
| 20260902180305 | 9 | 296 | 4.8 | 9.7 | 0.00 | 0.51 | 0.00 | 83 | 1007.4 |
| 20260902170805 | 8 | 34 | 0.0 | 0.0 | 0.00 | 0.51 | 0.00 | 93 | 1007.4 |
| 20260902170306 | 8 | 34 | 0.0 | 8.0 | 0.00 | 0.51 | 0.00 | 88 | 1007.4 |
| 20260902160805 | 6 | 263 | 4.8 | 4.8 | 0.00 | 0.51 | 0.00 | 99 | 1007.4 |
| 20260902160304 | 6 | 268 | 3.2 | 8.0 | 0.00 | 0.51 | 0.00 | 99 | 1007.4 |